Weather History for KDKB - March, 2014

Change the Weather History Date:

Monday, March 3, 2014

  Actual Average (KARR) Record (KARR)
Temperature  
Mean Temperature 2 °F 31 °F  
Max Temperature 11 °F 41 °F 50 °F (2008)
Min Temperature -8 °F 22 °F -9 °F (2014)
Degree Days  
Heating Degree Days 64 34  
Month to date heating degree days 103  
Since 1 July heating degree days 5241  
Cooling Degree Days 0 0  
Month to date cooling degree days 0  
Year to date cooling degree days 0  
Moisture  
Dew Point -7 °F    
Average Humidity 64    
Maximum Humidity 81    
Minimum Humidity 50    
Precipitation  
Precipitation 0.00 in 0.07 in 0.26 in (2008)
Month to date precipitation 0.20  
Year to date precipitation 3.29  
Sea Level Pressure  
Sea Level Pressure 30.43 in    
Wind  
Wind Speed 8 mph (WNW)    
Max Wind Speed 13 mph    
Max Gust Speed -    
Visibility 10 miles    
Events      
T = Trace of Precipitation, MM = Missing Value Source: NWS Daily Summary

Daily Weather History Graph

Daily Weather History Graph

Search for Another Location

Airport or City:

Trip Planner

Search our weather history database for the weather conditions in past years. The results will help you decide how hot, cold, wet, or windy it might be!

Date:

Astronomy

Mar. 03, 2014 Rise Set
Actual Time 6:26 AM CST 5:47 PM CST
Civil Twilight 5:58 AM CST 6:15 PM CST
Nautical Twilight 5:26 AM CST 6:47 PM CST
Astronomical Twilight 4:54 AM CST 7:20 PM CST
Moon 7:31 AM CST (3/3) 8:53 PM CST (3/3)
Length of Visible Light 12h 16m
Length of Day
11h 20m
Waxing Crescent, 8% of the Moon is Illuminated
Mar 3
Waxing Crescent
Mar 8
First Quarter
Mar 16
Full
Mar 23
Last Quarter
Mar 30
New

Hourly Weather History & Observations

Time (CST) Temp. Windchill Dew Point Humidity Pressure Visibility Wind Dir Wind Speed Gust Speed Precip Events Conditions
12:15 AM -3.3 °F -16.9 °F -17.0 °F 52% 30.42 in 10.0 mi NNW 6.9 mph - N/A   Clear
12:35 AM -3.1 °F -16.7 °F -17.5 °F 50% 30.41 in 10.0 mi NNW 6.9 mph - N/A   Clear
12:55 AM -3.3 °F -18.2 °F -17.5 °F 51% 30.42 in 10.0 mi NNW 8.1 mph - N/A   Clear
1:15 AM -3.3 °F -19.3 °F -17.7 °F 50% 30.42 in 10.0 mi NNW 9.2 mph - N/A   Clear
1:35 AM -3.5 °F -20.5 °F -17.9 °F 50% 30.43 in 10.0 mi NNW 10.4 mph - N/A   Clear
1:55 AM -3.8 °F -21.9 °F -18.2 °F 50% 30.42 in 10.0 mi NNW 11.5 mph - N/A   Clear
2:15 AM -4.2 °F -23.2 °F -18.4 °F 51% 30.41 in 10.0 mi NNW 12.7 mph - N/A   Clear
2:35 AM -4.4 °F -21.6 °F -18.4 °F 51% 30.41 in 10.0 mi North 10.4 mph - N/A   Clear
2:55 AM -4.9 °F -22.3 °F -18.4 °F 52% 30.41 in 10.0 mi NNW 10.4 mph - N/A   Clear
3:15 AM -5.3 °F -23.7 °F -18.4 °F 53% 30.41 in 10.0 mi NNW 11.5 mph - N/A   Clear
3:35 AM -6.0 °F -23.6 °F -18.4 °F 55% 30.41 in 10.0 mi NNW 10.4 mph - N/A   Clear
3:55 AM -6.3 °F -24.1 °F -18.4 °F 56% 30.41 in 10.0 mi North 10.4 mph - N/A   Clear
4:15 AM -6.9 °F -25.7 °F -18.6 °F 57% 30.41 in 10.0 mi North 11.5 mph - N/A   Clear
4:35 AM -7.1 °F -25.9 °F -18.4 °F 58% 30.42 in 10.0 mi NNW 11.5 mph - N/A   Clear
4:55 AM -7.1 °F -25.9 °F -18.4 °F 58% 30.43 in 10.0 mi NNW 11.5 mph - N/A   Clear
5:15 AM -7.2 °F -25.2 °F -18.4 °F 58% 30.44 in 10.0 mi NNW 10.4 mph - N/A   Clear
5:35 AM -7.8 °F -26.8 °F -18.6 °F 59% 30.44 in 10.0 mi North 11.5 mph - N/A   Clear
5:55 AM -7.8 °F -26.8 °F -18.4 °F 60% 30.44 in 10.0 mi North 11.5 mph - N/A   Clear
6:15 AM -7.8 °F -25.9 °F -18.4 °F 60% 30.44 in 10.0 mi North 10.4 mph - N/A   Clear
6:35 AM -8.1 °F -24.1 °F -18.4 °F 61% 30.45 in 10.0 mi North 8.1 mph - N/A   Clear
6:55 AM -7.6 °F -20.6 °F -18.6 °F 59% 30.45 in 10.0 mi NNW 5.8 mph - N/A   Clear
7:15 AM -7.2 °F -21.7 °F -18.4 °F 58% 30.45 in 10.0 mi North 6.9 mph - N/A   Clear
7:35 AM -6.9 °F -22.5 °F -17.5 °F 60% 30.46 in 10.0 mi NNW 8.1 mph - N/A   Clear
7:55 AM -5.6 °F -21.0 °F -16.6 °F 59% 30.46 in 10.0 mi NNW 8.1 mph - N/A   Clear
8:15 AM -4.7 °F -21.1 °F -15.7 °F 59% 30.47 in 10.0 mi North 9.2 mph - N/A   Clear
8:35 AM -3.8 °F -18.8 °F -14.8 °F 59% 30.47 in 10.0 mi North 8.1 mph - N/A   Clear
8:55 AM -2.2 °F -16.8 °F -13.7 °F 58% 30.47 in 10.0 mi NNW 8.1 mph - N/A   Clear
9:15 AM -0.9 °F -14.1 °F -11.7 °F 60% 30.47 in 10.0 mi NNW 6.9 mph - N/A   Clear
9:35 AM 0.1 °F -12.8 °F -10.7 °F 60% 30.47 in 10.0 mi North 6.9 mph - N/A   Clear
9:55 AM 1.8 °F -10.8 °F -8.7 °F 62% 30.48 in 10.0 mi North 6.9 mph - N/A   Clear
10:15 AM 4.3 °F -6.5 °F -4.7 °F 66% 30.48 in 10.0 mi NE 5.8 mph - N/A   Clear
10:35 AM 3.9 °F -6.9 °F -5.6 °F 65% 30.49 in 10.0 mi NNE 5.8 mph - N/A   Scattered Clouds
10:55 AM 4.8 °F -5.8 °F -4.4 °F 66% 30.50 in 10.0 mi NNE 5.8 mph - N/A   Overcast
11:15 AM 6.1 °F -4.3 °F -3.5 °F 65% 30.48 in 10.0 mi NE 5.8 mph - N/A   Mostly Cloudy
11:35 AM 6.8 °F -2.0 °F -2.9 °F 64% 30.48 in 10.0 mi NE 4.6 mph - N/A   Scattered Clouds
11:55 AM 8.8 °F - -1.7 °F 63% 30.48 in 10.0 mi Calm Calm - N/A   Clear
12:15 PM 9.0 °F - -1.5 °F 63% 30.48 in 10.0 mi Calm Calm - N/A   Clear
12:35 PM 10.0 °F 1.8 °F 0.1 °F 64% 30.47 in 10.0 mi South 4.6 mph - N/A   Clear
12:55 PM 10.4 °F 2.2 °F 0.9 °F 65% 30.46 in 10.0 mi South 4.6 mph - N/A   Clear
1:15 PM 10.4 °F -0.4 °F 0.1 °F 63% 30.46 in 10.0 mi South 6.9 mph - N/A   Clear
1:35 PM 10.6 °F 1.0 °F 1.0 °F 65% 30.46 in 10.0 mi South 5.8 mph - N/A   Clear
1:55 PM 10.6 °F -2.2 °F -1.1 °F 59% 30.46 in 10.0 mi SSW 9.2 mph - N/A   Clear
2:15 PM 11.1 °F -0.6 °F -0.2 °F 60% 30.46 in 10.0 mi SSW 8.1 mph - N/A   Clear
2:35 PM 11.3 °F -0.4 °F -0.2 °F 60% 30.46 in 10.0 mi SSW 8.1 mph - N/A   Clear
2:55 PM 11.5 °F -0.2 °F 0.3 °F 61% 30.45 in 10.0 mi SSW 8.1 mph - N/A   Clear
3:15 PM 11.3 °F 0.7 °F 0.1 °F 61% 30.45 in 10.0 mi SSW 6.9 mph - N/A   Clear
3:35 PM 11.3 °F 0.7 °F -0.0 °F 60% 30.45 in 10.0 mi SW 6.9 mph - N/A   Scattered Clouds
3:55 PM 11.3 °F 0.7 °F 0.9 °F 63% 30.44 in 10.0 mi SSW 6.9 mph - N/A   Scattered Clouds
4:15 PM 10.9 °F -0.8 °F 0.5 °F 63% 30.44 in 10.0 mi SSW 8.1 mph - N/A   Mostly Cloudy
4:35 PM 10.4 °F -0.4 °F -0.6 °F 61% 30.43 in 10.0 mi South 6.9 mph - N/A   Scattered Clouds
4:55 PM 9.3 °F -0.5 °F 0.5 °F 67% 30.43 in 10.0 mi South 5.8 mph - N/A   Clear
5:15 PM 8.4 °F -0.1 °F 0.5 °F 70% 30.43 in 10.0 mi SSW 4.6 mph - N/A   Clear
5:35 PM 8.4 °F 1.8 °F 0.5 °F 70% 30.43 in 10.0 mi SW 3.5 mph - N/A   Clear
6:00 PM 7.3 °F -1.3 °F 0.3 °F 73% 30.42 in 10.0 mi SW 4.6 mph - N/A   Clear
6:15 PM 6.6 °F -0.3 °F 0.1 °F 75% 30.41 in 10.0 mi SW 3.5 mph - N/A   Clear
6:35 PM 5.5 °F -1.5 °F -0.4 °F 77% 30.40 in 10.0 mi SSW 3.5 mph - N/A   Scattered Clouds
6:55 PM 7.3 °F -2.8 °F 1.2 °F 76% 30.41 in 10.0 mi WSW 5.8 mph - N/A   Clear
7:15 PM 6.4 °F -2.4 °F 0.3 °F 76% 30.40 in 10.0 mi WSW 4.6 mph - N/A   Clear
7:35 PM 7.3 °F -1.3 °F 1.4 °F 77% 30.39 in 10.0 mi WSW 4.6 mph - N/A   Clear
7:55 PM 5.9 °F -3.0 °F 0.1 °F 77% 30.37 in 10.0 mi SW 4.6 mph - N/A   Clear
8:15 PM 6.8 °F -2.0 °F 1.2 °F 78% 30.36 in 10.0 mi SW 4.6 mph - N/A   Clear
8:35 PM 5.7 °F - 0.3 °F 78% 30.36 in 10.0 mi Calm Calm - N/A   Mostly Cloudy
8:55 PM 6.4 °F -0.5 °F 0.9 °F 78% 30.36 in 10.0 mi SSW 3.5 mph - N/A   Scattered Clouds
9:15 PM 6.6 °F -0.3 °F 1.2 °F 79% 30.37 in 10.0 mi WSW 3.5 mph - N/A   Clear
9:35 PM 7.0 °F - 1.4 °F 78% 30.37 in 10.0 mi Calm Calm - N/A   Clear
9:55 PM 7.7 °F 1.0 °F 2.3 °F 79% 30.36 in 10.0 mi WSW 3.5 mph - N/A   Scattered Clouds
10:15 PM 8.2 °F 1.6 °F 2.3 °F 77% 30.36 in 10.0 mi South 3.5 mph - N/A   Scattered Clouds
10:40 PM 7.7 °F -2.4 °F 2.7 °F 80% 30.34 in 10.0 mi South 5.8 mph - N/A   Scattered Clouds
10:55 PM 7.7 °F -0.9 °F 2.8 °F 81% 30.33 in 10.0 mi South 4.6 mph - N/A   Scattered Clouds
11:15 PM 7.7 °F 1.0 °F 2.3 °F 79% 30.34 in 10.0 mi South 3.5 mph - N/A   Scattered Clouds
11:35 PM 8.2 °F - 2.5 °F 77% 30.34 in 10.0 mi Calm Calm - N/A   Clear
11:55 PM 8.4 °F 1.8 °F 2.3 °F 76% 30.35 in 10.0 mi SSW 3.5 mph - N/A   Clear